Terrell, TX

12:00 AM CDT on April 28, 2017 (GMT -0500)
Terrell Municipal

Weather History for KTRL - July, 2013

Change the Weather History Date:

Sunday, July 14, 2013

  Actual Average (KGVT) Record (KGVT)
Temperature  
Mean Temperature 74 °F -  
Max Temperature 78 °F 92 °F 104 °F (2011)
Min Temperature 71 °F 74 °F 68 °F (2013)
Cooling Degree Days 10    
Growing Degree Days 24 (Base 50)    
Moisture  
Dew Point 68 °F    
Average Humidity 84    
Maximum Humidity 96    
Minimum Humidity 45    
Precipitation  
Precipitation 0.04 in - - ()
Sea Level Pressure  
Sea Level Pressure 29.96 in    
Wind  
Wind Speed 4 mph (NNE)    
Max Wind Speed 9 mph    
Max Gust Speed -    
Visibility 8 miles    
Events Rain    
Averages and records for this station are not official NWS values.
T = Trace of Precipitation, MM = Missing Value Source: NWS Daily Summary

Daily Weather History Graph

Daily Weather History Graph

Search for Another Location

Airport or City:

Trip Planner

Search our weather history database for the weather conditions in past years. The results will help you decide how hot, cold, wet, or windy it might be!

Date:

Astronomy

Jul. 14, 2013 Rise Set
Actual Time 6:27 AM CDT 8:34 PM CDT
Civil Twilight 5:59 AM CDT 9:02 PM CDT
Nautical Twilight 5:25 AM CDT 9:36 PM CDT
Astronomical Twilight 4:48 AM CDT 10:12 PM CDT
Moon 12:22 PM CDT (7/14) No Moon Set
Length of Visible Light 15h 02m
Length of Day
14h 06m
Waxing Crescent, 35% of the Moon is Illuminated
Jul 14
Waxing Crescent
Jul 15
First Quarter
Jul 22
Full
Jul 29
Last Quarter
Aug 6
New

Hourly Weather History & Observations

Time (CDT) Temp. Dew Point Humidity Pressure Visibility Wind Dir Wind Speed Gust Speed Precip Events Conditions
12:53 AM 78.1 °F 55.0 °F 45% 29.92 in 10.0 mi East 4.6 mph - N/A   Clear
1:53 AM 75.9 °F 55.9 °F 50% 29.90 in 10.0 mi Calm Calm - N/A   Clear
2:53 AM 73.0 °F 57.9 °F 59% 29.88 in 10.0 mi Calm Calm - N/A   Clear
3:53 AM 71.1 °F 61.0 °F 70% 29.89 in 10.0 mi Calm Calm - N/A   Clear
4:53 AM 71.1 °F 63.0 °F 75% 29.91 in 10.0 mi NE 6.9 mph - N/A   Clear
5:53 AM 73.0 °F 64.0 °F 73% 29.92 in 10.0 mi NE 8.1 mph - N/A   Clear
6:53 AM 75.0 °F 64.0 °F 69% 29.92 in 10.0 mi East 4.6 mph - N/A   Clear
7:53 AM 75.0 °F 64.9 °F 71% 29.94 in 10.0 mi NE 5.8 mph - N/A   Scattered Clouds
8:53 AM 73.9 °F 68.0 °F 82% 29.95 in 8.0 mi Calm Calm - 0.00 in   Mostly Cloudy
9:53 AM 73.9 °F 69.1 °F 85% 29.98 in 7.0 mi NNW 4.6 mph - 0.00 in Rain Light Rain
10:53 AM 73.9 °F 71.1 °F 91% 30.00 in 6.0 mi NW 6.9 mph - 0.00 in Rain Light Rain
11:53 AM 73.9 °F 71.1 °F 91% 30.01 in 6.0 mi NNW 6.9 mph - 0.00 in Rain Light Rain
12:53 PM 73.0 °F 70.0 °F 90% 29.99 in 7.0 mi NW 6.9 mph - 0.01 in Rain Light Rain
1:53 PM 73.0 °F 70.0 °F 90% 29.99 in 7.0 mi NE 5.8 mph - 0.01 in Rain Light Rain
2:53 PM 73.9 °F 70.0 °F 87% 29.98 in 7.0 mi Calm Calm - 0.00 in Rain Light Rain
3:53 PM 73.9 °F 70.0 °F 87% 29.97 in 6.0 mi Calm Calm - 0.00 in Rain Light Rain
4:53 PM 73.9 °F 71.1 °F 91% 29.95 in 6.0 mi Calm Calm - 0.00 in Rain Light Rain
5:53 PM 73.9 °F 71.1 °F 91% 29.92 in 7.0 mi ENE 3.5 mph - 0.01 in Rain Light Rain
6:53 PM 73.9 °F 71.1 °F 91% 29.91 in 6.0 mi ESE 5.8 mph - 0.00 in Rain Light Rain
7:53 PM 73.0 °F 72.0 °F 96% 29.93 in 5.0 mi NNW 4.6 mph - 0.00 in   Overcast
8:53 PM 73.0 °F 71.1 °F 93% 29.94 in 8.0 mi NW 4.6 mph - N/A   Overcast
9:53 PM 73.0 °F 70.0 °F 90% 29.96 in 8.0 mi NNW 3.5 mph - N/A   Scattered Clouds
10:22 PM 73.4 °F 69.8 °F 88% 29.97 in 8.0 mi North 5.8 mph - 0.01 in   Overcast
10:42 PM 73.4 °F 71.6 °F 94% 29.98 in 7.0 mi NNE 6.9 mph - 0.01 in   Overcast
10:53 PM 72.0 °F 70.0 °F 93% 29.98 in 7.0 mi NE 9.2 mph - 0.01 in Rain Light Rain
11:10 PM 71.6 °F 69.8 °F 94% 29.99 in 6.0 mi NE 5.8 mph - 0.00 in Rain Light Rain
11:17 PM 71.6 °F 69.8 °F 94% 29.99 in 7.0 mi NE 5.8 mph - 0.00 in Rain Light Rain
11:31 PM 71.6 °F 69.8 °F 94% 29.99 in 7.0 mi ENE 3.5 mph - 0.00 in   Overcast
11:39 PM 71.6 °F 69.8 °F 94% 29.99 in 6.0 mi NE 4.6 mph - 0.00 in   Overcast
11:51 PM 71.6 °F 69.8 °F 94% 29.99 in 6.0 mi North 5.8 mph - 0.00 in   Overcast
11:53 PM 71.1 °F 70.0 °F 96% 29.97 in 6.0 mi North 5.8 mph - 0.00 in   Overcast